WXM80 ListenWXM80 Stop

You find our weather info also at:

UK Metoffice

WeatherCloud

Weather Underground

Northeastern Weather Network

AWEKAS

Citizen Weather Observer Program (CWOP)

HAMweather, WeatherForYou, PWS Weather


Weather Underground History page Text

Daily Summary for December 21, 2017 Units:  Metric    English   Both
« Previous Day
Next Day »
Daily Weekly Monthly Yearly Custom
  High: Low: Average:
Temperature: 4.2 °C 0.2 °C 1.8 °C
Dew Point: -3.9 °C -5.8 °C -5 °C
Humidity: 69 % 51 % 61 %
Wind Speed: 16.9 km/h 0 km/h 3.7 km/h
Wind Gust: 20.4 km/h - -
Wind:- - SSW
Pressure: 1025.6 hPa 1016.5 hPa -
Precipitation: 0 mm    
Historical Graphs
 
 
Tabular Data for December 21, 2017
Time Temperature Dew Point Pressure Wind Wind Speed Wind Gust Humidity Rainfall Rate (Hourly)
00:00 1.8 °C -5.6 °C 1016.5 hPa NW 7.7 km/h 14.8 km/h 58 % 0 mm
00:03 1.8 °C -5.6 °C 1016.5 hPa NNW 4.7 km/h 7.4 km/h 58 % 0 mm
00:08 1.8 °C -5.4 °C 1016.5 hPa NW 5.3 km/h 14.8 km/h 59 % 0 mm
00:13 1.7 °C -5.4 °C 1016.5 hPa WNW 6 km/h 18.5 km/h 59 % 0 mm
00:15 1.7 °C -5.4 °C 1016.5 hPa WNW 5.3 km/h 13 km/h 59 % 0 mm
00:18 1.7 °C -5.2 °C 1016.5 hPa NNW 6.4 km/h 11.1 km/h 60 % 0 mm
00:21 1.7 °C -5.3 °C 1016.8 hPa NNW 5.8 km/h 13 km/h 60 % 0 mm
00:26 1.7 °C -5.3 °C 1016.8 hPa WNW 6.3 km/h 14.5 km/h 60 % 0 mm
00:31 1.6 °C -5.6 °C 1016.5 hPa NW 5.6 km/h 14.8 km/h 59 % 0 mm
00:34 1.6 °C -5.3 °C 1016.8 hPa North 7.4 km/h 13 km/h 60 % 0 mm
00:39 1.6 °C -5.4 °C 1016.5 hPa NW 6 km/h 11.1 km/h 60 % 0 mm
00:44 1.5 °C -5.4 °C 1016.8 hPa NW 5.3 km/h 16.7 km/h 60 % 0 mm
00:46 1.5 °C -5.2 °C 1016.8 hPa NNW 6.9 km/h 11.1 km/h 61 % 0 mm
00:51 1.5 °C -5.4 °C 1016.8 hPa NNW 7.7 km/h 13 km/h 60 % 0 mm
00:56 1.4 °C -5.5 °C 1016.8 hPa WNW 9.2 km/h 16.7 km/h 60 % 0 mm
00:59 1.4 °C -5.5 °C 1016.8 hPa WNW 7.4 km/h 18.5 km/h 60 % 0 mm
01:03 1.4 °C -5.5 °C 1016.8 hPa NNW 3.5 km/h 9.3 km/h 60 % 0 mm
01:06 1.4 °C -5.3 °C 1016.8 hPa NNW 9 km/h 18.5 km/h 61 % 0 mm
01:10 1.4 °C -5.3 °C 1016.8 hPa WNW 0.3 km/h 4.8 km/h 61 % 0 mm
01:13 1.4 °C -5.1 °C 1017.2 hPa NW 6.3 km/h 18.5 km/h 62 % 0 mm
01:18 1.4 °C -5.1 °C 1016.8 hPa NW 6.9 km/h 13 km/h 62 % 0 mm
01:21 1.4 °C -5.1 °C 1016.8 hPa WNW 4.2 km/h 13 km/h 62 % 0 mm
01:26 1.4 °C -5.1 °C 1017.2 hPa WNW 4.8 km/h 14.8 km/h 62 % 0 mm
01:27 1.4 °C -5.1 °C 1017.2 hPa NNW 4.8 km/h 6.4 km/h 62 % 0 mm
01:30 1.4 °C -5.3 °C 1017.2 hPa NW 6 km/h 9.3 km/h 61 % 0 mm
01:35 1.4 °C -5.1 °C 1017.2 hPa NW 7.6 km/h 9.7 km/h 62 % 0 mm
01:39 1.3 °C -5.2 °C 1017.2 hPa NNW 2.6 km/h 8 km/h 62 % 0 mm
01:41 1.3 °C -5.2 °C 1017.2 hPa WNW 5.5 km/h 9.7 km/h 62 % 0 mm
01:46 1.3 °C -5.2 °C 1017.2 hPa NW 5.8 km/h 11.1 km/h 62 % 0 mm
01:51 1.3 °C -5.2 °C 1017.2 hPa NW 1.1 km/h 14.8 km/h 62 % 0 mm
01:52 1.3 °C -5.2 °C 1017.2 hPa NW 6.4 km/h 7.4 km/h 62 % 0 mm
01:55 1.3 °C -5.4 °C 1017.5 hPa WNW 9.8 km/h 11.3 km/h 61 % 0 mm
01:57 1.3 °C -5.4 °C 1017.2 hPa WSW 7.7 km/h 7.7 km/h 61 % 0 mm
02:03 1.3 °C -5.2 °C 1017.5 hPa NW 1.6 km/h 9.3 km/h 62 % 0 mm
02:04 1.3 °C -5.2 °C 1017.5 hPa NW 4 km/h 9.3 km/h 62 % 0 mm
02:09 1.3 °C -5.4 °C 1017.5 hPa WNW 7.1 km/h 11.3 km/h 61 % 0 mm
02:13 1.3 °C -5.2 °C 1017.5 hPa NW 1.8 km/h 11.1 km/h 62 % 0 mm
02:18 1.3 °C -5.2 °C 1017.5 hPa NW 6.1 km/h 11.1 km/h 62 % 0 mm
02:23 1.3 °C -5.4 °C 1017.5 hPa WNW 1.8 km/h 5.6 km/h 61 % 0 mm
02:28 1.2 °C -5.3 °C 1017.5 hPa NNW 2.9 km/h 8 km/h 62 % 0 mm
02:33 1.2 °C -5.3 °C 1017.5 hPa NNW 0.8 km/h 5.6 km/h 62 % 0 mm
02:36 1.2 °C -5.3 °C 1017.5 hPa NNW 3.9 km/h 7.4 km/h 62 % 0 mm
02:39 1.2 °C -5.3 °C 1017.5 hPa NNW 1.1 km/h 5.6 km/h 62 % 0 mm
02:45 1.2 °C -5.1 °C 1017.5 hPa NW 4.2 km/h 7.4 km/h 63 % 0 mm
02:47 1.2 °C -5.1 °C 1017.5 hPa NNW 1.8 km/h 9.3 km/h 63 % 0 mm
02:51 1.2 °C -5.1 °C 1017.5 hPa WNW 6.4 km/h 9.3 km/h 63 % 0 mm
02:52 1.2 °C -5.1 °C 1017.5 hPa NW 5.5 km/h 11.1 km/h 63 % 0 mm
02:57 1.1 °C -5.4 °C 1017.5 hPa NNW 3.4 km/h 11.1 km/h 62 % 0 mm
02:58 1.1 °C -5.2 °C 1017.5 hPa NNW 3.7 km/h 7.4 km/h 63 % 0 mm
03:02 1.2 °C -5.3 °C 1017.5 hPa NW 2.4 km/h 5.6 km/h 62 % 0 mm
03:08 1.1 °C -5.2 °C 1017.8 hPa NNE 2.6 km/h 5.6 km/h 63 % 0 mm
03:12 1.1 °C -5.4 °C 1017.8 hPa WNW 2.1 km/h 13 km/h 62 % 0 mm
03:17 1.1 °C -5.2 °C 1017.8 hPa NW 6.1 km/h 11.1 km/h 63 % 0 mm
03:18 1.1 °C -5.2 °C 1017.8 hPa NNW 8 km/h 13 km/h 63 % 0 mm
03:23 1.1 °C -5.2 °C 1017.8 hPa NW 8.7 km/h 16.7 km/h 63 % 0 mm
03:26 1.1 °C -5.4 °C 1017.8 hPa NNW 3.5 km/h 11.1 km/h 62 % 0 mm
03:31 1.2 °C -5.3 °C 1018.2 hPa WNW 3.1 km/h 11.3 km/h 62 % 0 mm
03:36 1.2 °C -5.1 °C 1018.2 hPa WNW 6 km/h 11.3 km/h 63 % 0 mm
03:40 1.2 °C -5.1 °C 1018.2 hPa NW 6.6 km/h 9.7 km/h 63 % 0 mm
03:45 1.2 °C -5.3 °C 1017.8 hPa NW 1.9 km/h 5.6 km/h 62 % 0 mm
03:50 1.1 °C -5.2 °C 1017.8 hPa NNE 1.3 km/h 5.6 km/h 63 % 0 mm
03:55 1.1 °C -5.2 °C 1018.2 hPa NNE 5.6 km/h 8 km/h 63 % 0 mm
04:00 1.1 °C -5.2 °C 1017.8 hPa NNE 4 km/h 9.3 km/h 63 % 0 mm
04:04 1 °C -5.3 °C 1017.8 hPa NNW 2.7 km/h 5.6 km/h 63 % 0 mm
04:09 0.9 °C -5.3 °C 1017.8 hPa NNE 5.1 km/h 9.3 km/h 63 % 0 mm
04:12 0.9 °C -5.3 °C 1018.2 hPa NNW 7.6 km/h 14.8 km/h 63 % 0 mm
04:18 0.9 °C -5.4 °C 1018.2 hPa North 5.8 km/h 9.7 km/h 63 % 0 mm
04:19 0.9 °C -5.2 °C 1018.2 hPa North 4.3 km/h 9.3 km/h 64 % 0 mm
04:21 0.9 °C -5.2 °C 1018.2 hPa NNW 7.1 km/h 9.7 km/h 64 % 0 mm
04:24 0.9 °C -5.2 °C 1018.2 hPa NNW 1.8 km/h 5.6 km/h 64 % 0 mm
04:29 0.8 °C -5.2 °C 1018.2 hPa North 9 km/h 9.7 km/h 64 % 0 mm
04:33 0.8 °C -5.3 °C 1018.2 hPa NNE 5.5 km/h 9.7 km/h 64 % 0 mm
04:38 0.8 °C -5.3 °C 1018.2 hPa North 2.3 km/h 9.3 km/h 64 % 0 mm
04:42 0.8 °C -5.3 °C 1018.5 hPa NNW 1.4 km/h 5.6 km/h 64 % 0 mm
04:47 0.8 °C -5.1 °C 1018.2 hPa NNW 3.1 km/h 5.6 km/h 65 % 0 mm
04:48 0.8 °C -5.1 °C 1018.2 hPa North 2.3 km/h 5.6 km/h 65 % 0 mm
04:53 0.8 °C -5.1 °C 1018.5 hPa NNW 7.9 km/h 11.1 km/h 65 % 0 mm
04:54 0.8 °C -5.1 °C 1018.5 hPa NNW 3.2 km/h 11.1 km/h 65 % 0 mm
04:55 0.8 °C -4.8 °C 1018.5 hPa NNE 1.6 km/h 6.4 km/h 66 % 0 mm
04:59 0.7 °C -4.9 °C 1018.8 hPa North 3.1 km/h 7.4 km/h 66 % 0 mm
05:04 0.7 °C -4.7 °C 1018.8 hPa NNE 4.3 km/h 7.4 km/h 67 % 0 mm
05:06 0.7 °C -4.7 °C 1018.8 hPa North 10 km/h 13 km/h 67 % 0 mm
05:11 0.7 °C -4.7 °C 1018.8 hPa NNE 5.1 km/h 7.4 km/h 67 % 0 mm
05:12 0.7 °C -4.7 °C 1018.8 hPa NNW 4.8 km/h 7.4 km/h 67 % 0 mm
05:17 0.8 °C -4.7 °C 1019.2 hPa North 6.3 km/h 9.3 km/h 67 % 0 mm
05:21 0.8 °C -4.7 °C 1019.2 hPa NNE 4.7 km/h 9.3 km/h 67 % 0 mm
05:27 0.8 °C -4.8 °C 1019.2 hPa North 6.6 km/h 9.3 km/h 66 % 0 mm
05:32 0.8 °C -4.8 °C 1019.2 hPa NNE 4 km/h 9.3 km/h 66 % 0 mm
05:33 0.8 °C -4.8 °C 1019.2 hPa NW 11.3 km/h 16.1 km/h 66 % 0 mm
05:36 0.8 °C -4.8 °C 1019.2 hPa NNE 8.7 km/h 16.7 km/h 66 % 0 mm
05:41 0.8 °C -5 °C 1019.2 hPa North 11.1 km/h 14.8 km/h 65 % 0 mm
05:42 0.8 °C -5.2 °C 1019.2 hPa North 8.9 km/h 13 km/h 64 % 0 mm
05:47 0.8 °C -5 °C 1019.2 hPa North 9 km/h 16.7 km/h 65 % 0 mm
05:48 0.8 °C -5 °C 1019.2 hPa North 5 km/h 11.1 km/h 65 % 0 mm
05:53 0.8 °C -5 °C 1019.5 hPa NNE 8.5 km/h 12.9 km/h 65 % 0 mm
05:55 0.8 °C -5 °C 1019.5 hPa NNE 8.5 km/h 13 km/h 65 % 0 mm
06:00 0.8 °C -5 °C 1019.5 hPa North 9.8 km/h 16.7 km/h 65 % 0 mm
06:02 0.8 °C -5 °C 1019.5 hPa NNE 5.8 km/h 13 km/h 65 % 0 mm
06:07 0.8 °C -5.2 °C 1019.5 hPa North 14 km/h 16.7 km/h 64 % 0 mm
06:09 0.8 °C -5.2 °C 1019.5 hPa NNW 9.8 km/h 16.7 km/h 64 % 0 mm
06:14 0.8 °C -4.8 °C 1019.5 hPa North 9.7 km/h 13 km/h 66 % 0 mm
06:19 0.8 °C -5 °C 1019.9 hPa North 7.1 km/h 12.9 km/h 65 % 0 mm
06:20 0.8 °C -5 °C 1019.9 hPa NNE 8.5 km/h 14.8 km/h 65 % 0 mm
06:25 0.8 °C -5 °C 1020.2 hPa North 7.6 km/h 11.1 km/h 65 % 0 mm
06:26 0.8 °C -5 °C 1020.2 hPa NNE 7.4 km/h 13 km/h 65 % 0 mm
06:31 0.8 °C -5.1 °C 1020.2 hPa NNE 2.7 km/h 7.4 km/h 65 % 0 mm
06:32 0.8 °C -5.1 °C 1020.2 hPa NNE 6.8 km/h 9.3 km/h 65 % 0 mm
06:36 0.8 °C -4.8 °C 1019.9 hPa NNE 6.8 km/h 9.7 km/h 66 % 0 mm
06:38 0.8 °C -4.8 °C 1020.2 hPa NNE 7.9 km/h 11.1 km/h 66 % 0 mm
06:43 0.7 °C -4.9 °C 1019.9 hPa North 5 km/h 11.1 km/h 66 % 0 mm
06:45 0.7 °C -5.1 °C 1019.9 hPa NNE 9.3 km/h 11.1 km/h 65 % 0 mm
06:46 0.7 °C -5.1 °C 1020.2 hPa NNE 9.7 km/h 14.5 km/h 65 % 0 mm
06:50 0.7 °C -5.3 °C 1020.2 hPa North 10.8 km/h 16.7 km/h 64 % 0 mm
06:52 0.7 °C -5.3 °C 1020.2 hPa North 7.9 km/h 12.9 km/h 64 % 0 mm
06:57 0.7 °C -5.2 °C 1019.9 hPa North 10.6 km/h 14.8 km/h 65 % 0 mm
07:02 0.7 °C -5.4 °C 1019.9 hPa NNE 7.1 km/h 9.3 km/h 64 % 0 mm
07:06 0.6 °C -5.4 °C 1019.9 hPa North 8.2 km/h 14.5 km/h 64 % 0 mm
07:11 0.6 °C -5.5 °C 1020.2 hPa North 10.5 km/h 16.7 km/h 64 % 0 mm
07:12 0.6 °C -5.5 °C 1020.2 hPa North 7.1 km/h 16.7 km/h 64 % 0 mm
07:17 0.4 °C -5.8 °C 1020.2 hPa NNW 4.7 km/h 11.1 km/h 63 % 0 mm
07:18 0.4 °C -5.8 °C 1020.2 hPa NNW 7.7 km/h 11.1 km/h 63 % 0 mm
07:20 0.4 °C -5.8 °C 1020.2 hPa North 4.5 km/h 6.4 km/h 63 % 0 mm
07:25 0.4 °C -5.4 °C 1020.2 hPa NNE 5.5 km/h 9.3 km/h 65 % 0 mm
07:26 0.4 °C -5.4 °C 1020.5 hPa NNE 6.3 km/h 9.3 km/h 65 % 0 mm
07:31 0.3 °C -5.5 °C 1020.5 hPa NNE 8 km/h 18.5 km/h 65 % 0 mm
07:34 0.3 °C -5.5 °C 1020.5 hPa NNE 8.9 km/h 11.1 km/h 65 % 0 mm
07:39 0.3 °C -5.6 °C 1020.9 hPa North 5 km/h 13 km/h 65 % 0 mm
07:40 0.3 °C -5.6 °C 1020.9 hPa North 5 km/h 13 km/h 65 % 0 mm
07:41 0.3 °C -5.6 °C 1021.2 hPa NNE 4.8 km/h 7.4 km/h 65 % 0 mm
07:46 0.2 °C -5.6 °C 1021.6 hPa NNE 7.6 km/h 13 km/h 65 % 0 mm
07:49 0.2 °C -5.6 °C 1021.6 hPa NNE 9.2 km/h 16.7 km/h 65 % 0 mm
07:54 0.2 °C -5.4 °C 1021.6 hPa North 7.9 km/h 16.7 km/h 66 % 0 mm
07:55 0.3 °C -5.3 °C 1021.6 hPa NNE 7.9 km/h 11.1 km/h 66 % 0 mm
08:03 0.3 °C -5.5 °C 1021.6 hPa North 8 km/h 16.7 km/h 65 % 0 mm
08:08 0.4 °C -5.4 °C 1021.9 hPa North 10.3 km/h 16.7 km/h 65 % 0 mm
08:13 0.4 °C -5.4 °C 1021.9 hPa NNE 13.5 km/h 18.5 km/h 65 % 0 mm
08:18 0.4 °C -5.6 °C 1021.9 hPa NE 11.4 km/h 18.5 km/h 64 % 0 mm
08:23 0.5 °C -5.6 °C 1021.9 hPa NE 11.3 km/h 20.4 km/h 64 % 0 mm
08:24 0.5 °C -5.6 °C 1021.9 hPa NE 11.4 km/h 18.5 km/h 64 % 0 mm
08:26 0.5 °C -5.7 °C 1021.9 hPa NNE 16.9 km/h 18.5 km/h 63 % 0 mm
08:31 0.6 °C -5.7 °C 1021.9 hPa North 7.7 km/h 11.3 km/h 63 % 0 mm
08:33 0.6 °C -5.7 °C 1021.9 hPa North 9.5 km/h 14.8 km/h 63 % 0 mm
08:38 0.6 °C -5.7 °C 1021.6 hPa NNE 11.7 km/h 16.7 km/h 63 % 0 mm
08:43 0.6 °C -5.7 °C 1021.6 hPa NNE 5.5 km/h 13 km/h 63 % 0 mm
08:44 0.6 °C -5.7 °C 1021.6 hPa NNE 7.6 km/h 11.3 km/h 63 % 0 mm
08:49 0.6 °C -5.4 °C 1021.2 hPa North 6.1 km/h 11.3 km/h 64 % 0 mm
08:50 0.6 °C -5.4 °C 1021.2 hPa NE 7.4 km/h 11.1 km/h 64 % 0 mm
08:54 0.7 °C -5.4 °C 1021.6 hPa North 7.7 km/h 11.1 km/h 64 % 0 mm
08:59 0.7 °C -5.4 °C 1021.9 hPa ENE 4.2 km/h 5.6 km/h 64 % 0 mm
09:04 0.7 °C -5.3 °C 1021.9 hPa NE 3.7 km/h 6.4 km/h 64 % 0 mm
09:09 0.8 °C -5.3 °C 1021.9 hPa NNE 8 km/h 13 km/h 64 % 0 mm
09:10 0.8 °C -5.3 °C 1021.9 hPa NE 10.3 km/h 14.8 km/h 64 % 0 mm
09:15 0.8 °C -5.4 °C 1021.9 hPa North 5 km/h 9.3 km/h 63 % 0 mm
09:16 0.8 °C -5.4 °C 1021.9 hPa North 5.8 km/h 7.4 km/h 63 % 0 mm
09:21 0.9 °C -5.3 °C 1022.2 hPa NNE 9.7 km/h 14.5 km/h 63 % 0 mm
09:22 0.9 °C -5.3 °C 1022.2 hPa North 4.5 km/h 9.3 km/h 63 % 0 mm
09:27 1 °C -5.1 °C 1022.6 hPa North 7.7 km/h 13 km/h 64 % 0 mm
09:28 1 °C -5.1 °C 1022.6 hPa North 6.6 km/h 13 km/h 64 % 0 mm
09:33 1.2 °C -5.1 °C 1022.6 hPa North 5.5 km/h 11.1 km/h 63 % 0 mm
09:36 1.2 °C -5.1 °C 1022.9 hPa NNW 6.6 km/h 14.8 km/h 63 % 0 mm
09:41 1.3 °C -5 °C 1022.6 hPa North 6.6 km/h 9.3 km/h 63 % 0 mm
09:43 1.3 °C -4.9 °C 1022.6 hPa NNE 2.9 km/h 6.4 km/h 63 % 0 mm
09:44 1.3 °C -4.9 °C 1022.6 hPa NE 6.3 km/h 9.7 km/h 63 % 0 mm
09:49 1.4 °C -5.1 °C 1022.9 hPa NNW 6.6 km/h 13 km/h 62 % 0 mm
09:54 1.6 °C -4.7 °C 1022.9 hPa North 4.8 km/h 7.4 km/h 63 % 0 mm
09:55 1.6 °C -4.7 °C 1022.9 hPa North 3.2 km/h 7.4 km/h 63 % 0 mm
10:00 1.7 °C -4.8 °C 1022.9 hPa NNE 6.4 km/h 11.3 km/h 62 % 0 mm
10:01 1.7 °C -5.1 °C 1022.9 hPa North 5.6 km/h 9.3 km/h 61 % 0 mm
10:02 1.7 °C -5.1 °C 1022.9 hPa North 5.6 km/h 9.3 km/h 61 % 0 mm
10:07 1.8 °C -4.7 °C 1022.9 hPa NNW 5.3 km/h 11.1 km/h 62 % 0 mm
10:08 1.8 °C -4.9 °C 1022.9 hPa NNW 4.3 km/h 7.4 km/h 61 % 0 mm
10:12 1.9 °C -4.8 °C 1022.9 hPa NNE 4 km/h 8 km/h 61 % 0 mm
10:17 2.1 °C -4.6 °C 1023.2 hPa North 3.4 km/h 7.4 km/h 61 % 0 mm
10:18 2.2 °C -4.6 °C 1023.2 hPa North 4.3 km/h 7.4 km/h 61 % 0 mm
10:23 2.4 °C -4.6 °C 1022.9 hPa NNW 8.7 km/h 11.1 km/h 60 % 0 mm
10:28 2.4 °C -4.6 °C 1022.9 hPa North 2.6 km/h 5.6 km/h 60 % 0 mm
10:34 2.6 °C -4.7 °C 1022.6 hPa NNW 1.9 km/h 9.3 km/h 59 % 0 mm
10:35 2.6 °C -4.7 °C 1022.6 hPa NNW 1.6 km/h 4.8 km/h 59 % 0 mm
10:39 2.5 °C -4.9 °C 1022.2 hPa NNE 3.1 km/h 6.4 km/h 58 % 0 mm
10:41 2.5 °C -4.7 °C 1022.6 hPa North 4.8 km/h 11.3 km/h 59 % 0 mm
10:46 2.5 °C -4.5 °C 1022.6 hPa NNE 3.7 km/h 8 km/h 60 % 0 mm
10:47 2.5 °C -4.7 °C 1022.6 hPa North 3.7 km/h 9.3 km/h 59 % 0 mm
10:52 2.6 °C -4.7 °C 1022.2 hPa North 2.9 km/h 3.7 km/h 59 % 0 mm
10:53 2.6 °C -4.7 °C 1022.2 hPa NNW 5.5 km/h 9.3 km/h 59 % 0 mm
10:54 2.6 °C -4.7 °C 1022.6 hPa WNW 5 km/h 8 km/h 59 % 0 mm
11:00 2.7 °C -4.6 °C 1022.6 hPa NW 3.9 km/h 11.3 km/h 59 % 0 mm
11:03 2.7 °C -4.7 °C 1022.9 hPa NW 5.6 km/h 9.3 km/h 58 % 0 mm
11:08 2.7 °C -4.6 °C 1022.6 hPa NW 4.8 km/h 6.4 km/h 59 % 0 mm
11:11 2.6 °C -4.8 °C 1022.9 hPa North 6 km/h 8 km/h 58 % 0 mm
11:12 2.6 °C -4.6 °C 1022.6 hPa NE 7.7 km/h 11.3 km/h 59 % 0 mm
11:17 2.4 °C -5 °C 1022.9 hPa NNE 6 km/h 11.1 km/h 58 % 0 mm
11:22 2.4 °C -4.8 °C 1022.6 hPa WNW 3.7 km/h 7.4 km/h 59 % 0 mm
11:25 2.4 °C -4.6 °C 1022.9 hPa WNW 3.9 km/h 7.4 km/h 60 % 0 mm
11:28 2.4 °C -4.6 °C 1022.9 hPa WNW 2.9 km/h 6.4 km/h 60 % 0 mm
11:32 2.4 °C -4.8 °C 1022.6 hPa WNW 4 km/h 7.4 km/h 59 % 0 mm
11:33 2.4 °C -4.8 °C 1022.6 hPa WNW 1.9 km/h 5.6 km/h 59 % 0 mm
11:38 2.3 °C -4.9 °C 1022.6 hPa Calm     59 % 0 mm
11:41 2.3 °C -4.9 °C 1022.6 hPa NNW 4 km/h 8 km/h 59 % 0 mm
11:46 2.3 °C -4.9 °C 1022.6 hPa WNW 5.3 km/h 11.1 km/h 59 % 0 mm
11:47 2.3 °C -4.9 °C 1022.2 hPa WNW 3.7 km/h 9.3 km/h 59 % 0 mm
11:52 2.3 °C -5.1 °C 1022.2 hPa WNW 2.7 km/h 5.6 km/h 58 % 0 mm
11:56 2.3 °C -5.1 °C 1022.2 hPa WNW 5.1 km/h 8 km/h 58 % 0 mm
12:01 2.4 °C -5 °C 1022.6 hPa NNW 5.1 km/h 7.4 km/h 58 % 0 mm
12:06 2.5 °C -4.7 °C 1022.2 hPa NNE 5 km/h 9.3 km/h 59 % 0 mm
12:11 2.6 °C -4.6 °C 1022.6 hPa NW 4.7 km/h 5.6 km/h 59 % 0 mm
12:15 2.7 °C -4.7 °C 1022.2 hPa North 6 km/h 13 km/h 58 % 0 mm
12:18 2.8 °C -4.4 °C 1022.2 hPa North 2.4 km/h 7.4 km/h 59 % 0 mm
12:23 3 °C -4.4 °C 1021.9 hPa NNW 3.5 km/h 9.3 km/h 58 % 0 mm
12:28 3.2 °C -4.5 °C 1021.9 hPa NW 1 km/h 3.7 km/h 57 % 0 mm
12:31 3.4 °C -4.3 °C 1021.9 hPa WNW 5.5 km/h 8 km/h 57 % 0 mm
12:32 3.4 °C -4.5 °C 1021.9 hPa WNW 1.4 km/h 7.4 km/h 56 % 0 mm
12:37 3.5 °C -4.7 °C 1022.2 hPa WNW 8.4 km/h 11.1 km/h 55 % 0 mm
12:45 3.6 °C -4.6 °C 1022.2 hPa Calm   3.7 km/h 55 % 0 mm
12:46 3.6 °C -4.6 °C 1021.9 hPa WNW 3.2 km/h 11.3 km/h 55 % 0 mm
12:51 3.7 °C -4.5 °C 1021.9 hPa North 3.9 km/h 11.1 km/h 55 % 0 mm
12:56 3.8 °C -4.4 °C 1021.9 hPa NW 0.6 km/h 3.7 km/h 55 % 0 mm
13:00 3.8 °C -4.4 °C 1021.6 hPa Calm   3.7 km/h 55 % 0 mm
13:01 3.8 °C -4.6 °C 1021.6 hPa Calm   3.7 km/h 54 % 0 mm
13:06 3.9 °C -4.6 °C 1021.6 hPa NW 2.6 km/h 5.6 km/h 54 % 0 mm
13:08 3.9 °C -4.6 °C 1021.6 hPa NW 0.6 km/h 3.7 km/h 54 % 0 mm
13:13 3.9 °C -4.6 °C 1021.6 hPa NNE 1.4 km/h 7.4 km/h 54 % 0 mm
13:16 4 °C -4.5 °C 1021.6 hPa NW 2.4 km/h 3.7 km/h 54 % 0 mm
13:21 4.1 °C -4.1 °C 1021.6 hPa NW 1 km/h 3.7 km/h 55 % 0 mm
13:25 4.2 °C -4.3 °C 1021.6 hPa NNW 4.7 km/h 7.4 km/h 54 % 0 mm
13:30 4.1 °C -4.6 °C 1021.6 hPa NNE 3.5 km/h 7.4 km/h 53 % 0 mm
13:31 4.2 °C -4.6 °C 1021.6 hPa WNW 1 km/h 6.4 km/h 53 % 0 mm
13:36 4.2 °C -5.1 °C 1021.9 hPa WNW 3.9 km/h 5.6 km/h 51 % 0 mm
13:37 4.2 °C -5.1 °C 1021.9 hPa WNW 1.9 km/h 5.6 km/h 51 % 0 mm
13:47 4.2 °C -4.5 °C 1021.9 hPa NW 4 km/h 5.6 km/h 53 % 0 mm
13:48 4.2 °C -4.8 °C 1021.9 hPa NW 3.9 km/h 5.6 km/h 52 % 0 mm
13:53 4.2 °C -5.1 °C 1021.9 hPa NW 3.2 km/h 5.6 km/h 51 % 0 mm
13:56 4.1 °C -5.1 °C 1021.9 hPa NW 4 km/h 7.4 km/h 51 % 0 mm
14:01 4.1 °C -4.6 °C 1021.9 hPa NNW 2.1 km/h 5.6 km/h 53 % 0 mm
14:02 4.1 °C -4.6 °C 1021.9 hPa NNW 2.9 km/h 5.6 km/h 53 % 0 mm
14:07 4.1 °C -4.9 °C 1022.2 hPa West 0.8 km/h 5.6 km/h 52 % 0 mm
14:08 4.1 °C -4.9 °C 1021.9 hPa West 0.3 km/h 1.6 km/h 52 % 0 mm
14:13 4.1 °C -4.9 °C 1021.9 hPa WNW 0.8 km/h 3.2 km/h 52 % 0 mm
14:16 4.1 °C -4.9 °C 1021.9 hPa WNW 1.3 km/h 3.7 km/h 52 % 0 mm
14:21 4 °C -5 °C 1021.9 hPa NW 2.1 km/h 5.6 km/h 52 % 0 mm
14:22 4 °C -5 °C 1021.9 hPa NW 1.9 km/h 5.6 km/h 52 % 0 mm
14:27 3.9 °C -5.1 °C 1021.9 hPa SSW 2.1 km/h 5.6 km/h 52 % 0 mm
14:31 3.8 °C -5.2 °C 1022.2 hPa South 4.2 km/h 9.7 km/h 52 % 0 mm
14:36 3.7 °C -5.1 °C 1021.9 hPa WSW 3.7 km/h 9.3 km/h 53 % 0 mm
14:38 3.6 °C -5.1 °C 1022.2 hPa WNW 3.9 km/h 7.4 km/h 53 % 0 mm
14:41 3.6 °C -4.9 °C 1022.2 hPa WNW 0.5 km/h 3.7 km/h 54 % 0 mm
14:46 3.6 °C -5.2 °C 1022.2 hPa WNW 1.8 km/h 5.6 km/h 53 % 0 mm
14:49 3.6 °C -5.2 °C 1021.9 hPa WNW 3.2 km/h 3.7 km/h 53 % 0 mm
14:52 3.5 °C -5.2 °C 1022.2 hPa WNW 2.7 km/h 5.6 km/h 53 % 0 mm
14:56 3.4 °C -5 °C 1022.2 hPa West 0.5 km/h 5.6 km/h 54 % 0 mm
15:01 3.4 °C -5.1 °C 1022.2 hPa West 0.8 km/h 3.7 km/h 54 % 0 mm
15:03 3.4 °C -4.8 °C 1021.9 hPa West 1.8 km/h 5.6 km/h 55 % 0 mm
15:08 3.3 °C -4.6 °C 1021.9 hPa SSW 1.6 km/h 5.6 km/h 56 % 0 mm
15:10 3.3 °C -4.7 °C 1021.9 hPa SW 2.3 km/h 5.6 km/h 56 % 0 mm
15:15 3.2 °C -4.7 °C 1021.9 hPa SSW 2.7 km/h 7.4 km/h 56 % 0 mm
15:18 3.2 °C -4.7 °C 1021.9 hPa SW 2.7 km/h 5.6 km/h 56 % 0 mm
15:23 3.2 °C -4.8 °C 1021.9 hPa SW 2.9 km/h 5.6 km/h 56 % 0 mm
15:28 3.2 °C -5 °C 1021.9 hPa SW 1.6 km/h 5.6 km/h 55 % 0 mm
15:32 3.1 °C -5.1 °C 1022.2 hPa SW 3.4 km/h 5.6 km/h 55 % 0 mm
15:37 3.1 °C -4.9 °C 1022.2 hPa SW 1.4 km/h 3.7 km/h 56 % 0 mm
15:38 3.1 °C -4.9 °C 1022.2 hPa SW 1.8 km/h 5.6 km/h 56 % 0 mm
15:43 3 °C -4.9 °C 1022.6 hPa WSW 3.1 km/h 5.6 km/h 56 % 0 mm
15:45 3 °C -4.9 °C 1022.2 hPa SW 1.4 km/h 6.4 km/h 56 % 0 mm
15:47 3 °C -4.9 °C 1022.2 hPa WSW 0.3 km/h 5.6 km/h 56 % 0 mm
15:56 2.9 °C -5 °C 1022.9 hPa West 1.8 km/h 5.6 km/h 56 % 0 mm
15:57 2.9 °C -5 °C 1022.9 hPa West 5.5 km/h 9.3 km/h 56 % 0 mm
16:02 2.9 °C -5.1 °C 1022.9 hPa WSW 0.6 km/h 3.7 km/h 56 % 0 mm
16:03 2.9 °C -5.1 °C 1022.9 hPa WSW 1.6 km/h 3.7 km/h 56 % 0 mm
16:06 2.8 °C -5.1 °C 1022.9 hPa Calm   3.7 km/h 56 % 0 mm
16:10 2.8 °C -5.1 °C 1022.9 hPa WSW 0.6 km/h 1.6 km/h 56 % 0 mm
16:12 2.8 °C -5.1 °C 1023.2 hPa Calm     56 % 0 mm
16:17 2.8 °C -4.9 °C 1022.9 hPa WSW 0.2 km/h 1.9 km/h 57 % 0 mm
16:18 2.8 °C -4.9 °C 1023.2 hPa Calm   1.9 km/h 57 % 0 mm
16:22 2.7 °C -4.9 °C 1022.9 hPa Calm     57 % 0 mm
16:27 2.7 °C -5 °C 1023.2 hPa Calm     57 % 0 mm
16:32 2.6 °C -5.1 °C 1022.9 hPa Calm     57 % 0 mm
16:37 2.5 °C -4.9 °C 1022.9 hPa Calm     58 % 0 mm
16:38 2.5 °C -4.9 °C 1022.9 hPa Calm     58 % 0 mm
16:39 2.4 °C -5 °C 1023.2 hPa Calm     58 % 0 mm
16:45 2.3 °C -4.9 °C 1023.2 hPa Calm     59 % 0 mm
16:46 2.3 °C -4.9 °C 1023.2 hPa Calm     59 % 0 mm
16:51 2.2 °C -5 °C 1023.2 hPa Calm     59 % 0 mm
16:55 2.1 °C -5.1 °C 1023.2 hPa Calm     59 % 0 mm
17:00 1.9 °C -5 °C 1023.2 hPa Calm     60 % 0 mm
17:05 1.8 °C -4.9 °C 1023.2 hPa WSW 0.3 km/h 1.9 km/h 61 % 0 mm
17:11 1.7 °C -4.8 °C 1023.2 hPa WSW 0.2 km/h 1.9 km/h 62 % 0 mm
17:16 1.6 °C -4.9 °C 1023.6 hPa West 4.8 km/h 8 km/h 62 % 0 mm
17:20 1.5 °C -5 °C 1023.2 hPa Calm     62 % 0 mm
17:23 1.4 °C -5.1 °C 1023.6 hPa Calm     62 % 0 mm
17:28 1.4 °C -5.1 °C 1023.6 hPa Calm   5.6 km/h 62 % 0 mm
17:29 1.4 °C -5.1 °C 1023.9 hPa Calm     62 % 0 mm
17:34 1.4 °C -5.1 °C 1023.6 hPa Calm     62 % 0 mm
17:36 1.4 °C -5.1 °C 1023.6 hPa Calm     62 % 0 mm
17:41 1.4 °C -4.8 °C 1023.6 hPa Calm   3.2 km/h 63 % 0 mm
17:43 1.4 °C -5.1 °C 1023.9 hPa NW 4 km/h 5.6 km/h 62 % 0 mm
17:48 1.6 °C -5.4 °C 1023.9 hPa WNW 1 km/h 5.6 km/h 60 % 0 mm
17:54 1.6 °C -5.3 °C 1023.9 hPa WNW 1.3 km/h 3.7 km/h 60 % 0 mm
17:58 1.7 °C -5.3 °C 1024.3 hPa WNW 2.6 km/h 5.6 km/h 60 % 0 mm
18:03 1.8 °C -5.4 °C 1023.9 hPa NNW 3.4 km/h 5.6 km/h 59 % 0 mm
18:07 1.8 °C -5.6 °C 1024.3 hPa NNW 1.1 km/h 5.6 km/h 58 % 0 mm
18:08 1.8 °C -5.6 °C 1024.3 hPa North 3.2 km/h 6.4 km/h 58 % 0 mm
18:13 1.9 °C -5.4 °C 1023.9 hPa NNE 5.1 km/h 6.4 km/h 58 % 0 mm
18:19 2 °C -5.4 °C 1023.9 hPa North 2.6 km/h 5.6 km/h 58 % 0 mm
18:22 2 °C -5.4 °C 1023.9 hPa North 1.9 km/h 5.6 km/h 58 % 0 mm
18:27 2.1 °C -5.3 °C 1023.9 hPa NNE 0.3 km/h 1.9 km/h 58 % 0 mm
18:32 2.1 °C -5.6 °C 1023.9 hPa NNE 2.1 km/h 5.6 km/h 57 % 0 mm
18:34 2.1 °C -5.6 °C 1023.9 hPa NNE 3.2 km/h 5.6 km/h 57 % 0 mm
18:39 2.2 °C -5.4 °C 1023.9 hPa North 2.1 km/h 5.6 km/h 57 % 0 mm
18:40 2.2 °C -5.4 °C 1023.9 hPa NE 6.3 km/h 9.3 km/h 57 % 0 mm
18:45 2.3 °C -5.4 °C 1024.3 hPa NNE 1 km/h 5.6 km/h 57 % 0 mm
18:46 2.3 °C -5.4 °C 1024.3 hPa NNE 0.3 km/h 3.7 km/h 57 % 0 mm
18:51 2.3 °C -5.3 °C 1024.3 hPa North 0.8 km/h 3.2 km/h 57 % 0 mm
18:52 2.3 °C -5.3 °C 1024.3 hPa North 1.1 km/h 3.2 km/h 57 % 0 mm
18:57 2.4 °C -5.3 °C 1024.3 hPa NNE 0.3 km/h 5.6 km/h 57 % 0 mm
19:02 2.4 °C -5.2 °C 1024.6 hPa NNW 2.6 km/h 5.6 km/h 57 % 0 mm
19:07 2.5 °C -5.2 °C 1024.9 hPa NNE 3.4 km/h 5.6 km/h 57 % 0 mm
19:12 2.6 °C -5.3 °C 1024.9 hPa North 0.6 km/h 3.7 km/h 56 % 0 mm
19:17 2.6 °C -5.3 °C 1024.6 hPa NNE 0.3 km/h 1.9 km/h 56 % 0 mm
19:22 2.6 °C -5.1 °C 1024.6 hPa NNE 5.6 km/h 7.4 km/h 57 % 0 mm
19:23 2.6 °C -5.1 °C 1024.6 hPa NNE 5.8 km/h 7.4 km/h 57 % 0 mm
19:28 2.7 °C -5.2 °C 1024.6 hPa NNE 0.2 km/h 1.9 km/h 56 % 0 mm
19:33 2.7 °C -5.2 °C 1024.6 hPa NNE 3.2 km/h 5.6 km/h 56 % 0 mm
19:35 2.7 °C -5.2 °C 1024.6 hPa NNE 3.5 km/h 6.4 km/h 56 % 0 mm
19:40 2.7 °C -5.2 °C 1024.3 hPa NNE 5.8 km/h 6.4 km/h 56 % 0 mm
19:45 2.7 °C -5.2 °C 1024.3 hPa NNE 3.2 km/h 5.6 km/h 56 % 0 mm
19:50 2.7 °C -5.2 °C 1024.6 hPa NNE 0.2 km/h 5.6 km/h 56 % 0 mm
19:51 2.7 °C -5.2 °C 1024.6 hPa NNE 1.9 km/h 3.7 km/h 56 % 0 mm
19:56 2.7 °C -5.5 °C 1024.3 hPa Calm     55 % 0 mm
20:01 2.7 °C -5.5 °C 1024.3 hPa Calm   1.9 km/h 55 % 0 mm
20:03 2.7 °C -5.2 °C 1024.3 hPa Calm     56 % 0 mm
20:08 2.7 °C -4.8 °C 1024.6 hPa Calm     58 % 0 mm
20:13 2.7 °C -4.6 °C 1024.6 hPa Calm     59 % 0 mm
20:18 2.7 °C -4.1 °C 1024.6 hPa Calm     61 % 0 mm
20:23 2.6 °C -4.2 °C 1024.6 hPa Calm     61 % 0 mm
20:24 2.6 °C -4.2 °C 1024.9 hPa Calm     61 % 0 mm
20:29 2.6 °C -4.2 °C 1024.9 hPa Calm     61 % 0 mm
20:30 2.6 °C -4.2 °C 1024.9 hPa Calm     61 % 0 mm
20:34 2.5 °C -4.3 °C 1024.9 hPa Calm     61 % 0 mm
20:38 2.4 °C -4.3 °C 1024.9 hPa Calm     61 % 0 mm
20:43 2.4 °C -4.3 °C 1024.9 hPa Calm     61 % 0 mm
20:44 2.4 °C -4.3 °C 1024.9 hPa Calm     61 % 0 mm
20:48 2.3 °C -4.2 °C 1025.3 hPa Calm     62 % 0 mm
20:53 2.3 °C -4.2 °C 1024.9 hPa Calm     62 % 0 mm
20:55 2.3 °C -4.1 °C 1025.3 hPa Calm     63 % 0 mm
20:56 2.3 °C -4.1 °C 1025.3 hPa Calm     63 % 0 mm
21:01 2.2 °C -4.1 °C 1025.3 hPa Calm     63 % 0 mm
21:02 2.2 °C -4.1 °C 1025.3 hPa Calm     63 % 0 mm
21:07 2.1 °C -4.2 °C 1025.3 hPa Calm     63 % 0 mm
21:12 2.1 °C -4.1 °C 1025.3 hPa Calm     64 % 0 mm
21:15 2 °C -4.1 °C 1025.3 hPa Calm     64 % 0 mm
21:20 1.9 °C -4.2 °C 1025.3 hPa Calm     64 % 0 mm
21:21 1.9 °C -3.9 °C 1025.3 hPa Calm     65 % 0 mm
21:26 1.8 °C -4.3 °C 1025.6 hPa NNE 0.3 km/h 1.6 km/h 64 % 0 mm
21:28 1.8 °C -4.1 °C 1025.3 hPa NNE 0.5 km/h 1.9 km/h 65 % 0 mm
21:29 1.8 °C -4.1 °C 1025.3 hPa NNE 0.2 km/h 1.9 km/h 65 % 0 mm
21:34 1.7 °C -4.2 °C 1025.3 hPa Calm     65 % 0 mm
21:39 1.6 °C -4.3 °C 1025.6 hPa Calm     65 % 0 mm
21:41 1.6 °C -4.3 °C 1025.3 hPa Calm   1.9 km/h 65 % 0 mm
21:46 1.5 °C -4.2 °C 1025.3 hPa Calm     66 % 0 mm
21:49 1.4 °C -4.3 °C 1025.3 hPa Calm     66 % 0 mm
21:53 1.3 °C -4.3 °C 1025.3 hPa NNE 0.5 km/h 1.9 km/h 66 % 0 mm
21:58 1.3 °C -4.2 °C 1025.3 hPa Calm     67 % 0 mm
21:59 1.3 °C -4.4 °C 1025.3 hPa Calm     66 % 0 mm
22:00 1.3 °C -4.2 °C 1025.3 hPa Calm     67 % 0 mm
22:05 1.2 °C -4.5 °C 1025.3 hPa Calm   1.9 km/h 66 % 0 mm
22:06 1.2 °C -4.5 °C 1025.3 hPa Calm     66 % 0 mm
22:11 1.1 °C -4.3 °C 1025.3 hPa Calm     67 % 0 mm
22:17 1 °C -4.4 °C 1025.3 hPa Calm   1.9 km/h 67 % 0 mm
22:18 1 °C -4.4 °C 1025.6 hPa Calm     67 % 0 mm
22:23 0.9 °C -4.3 °C 1025.3 hPa NE 0.5 km/h 3.2 km/h 68 % 0 mm
22:25 0.8 °C -4.4 °C 1025.3 hPa NE 0.2 km/h 1.9 km/h 68 % 0 mm
22:30 0.8 °C -4.4 °C 1025.3 hPa Calm   3.7 km/h 68 % 0 mm
22:35 0.7 °C -4.7 °C 1025.6 hPa Calm     67 % 0 mm
22:36 0.7 °C -4.7 °C 1025.6 hPa Calm     67 % 0 mm
22:44 0.6 °C -4.8 °C 1025.6 hPa Calm     67 % 0 mm
22:49 0.6 °C -4.7 °C 1025.6 hPa Calm     68 % 0 mm
22:54 0.5 °C -4.7 °C 1025.6 hPa Calm     68 % 0 mm
22:55 0.5 °C -4.7 °C 1025.6 hPa ENE 1 km/h 3.7 km/h 68 % 0 mm
23:00 0.5 °C -4.7 °C 1025.6 hPa ENE 0.6 km/h 1.9 km/h 68 % 0 mm
23:01 0.5 °C -4.7 °C 1025.6 hPa ENE 0.8 km/h 3.7 km/h 68 % 0 mm
23:06 0.4 °C -4.6 °C 1025.3 hPa ENE 0.8 km/h 3.7 km/h 69 % 0 mm
23:09 0.4 °C -4.6 °C 1025.3 hPa ENE 2.3 km/h 4.8 km/h 69 % 0 mm
23:14 0.6 °C -4.7 °C 1025.6 hPa ENE 4 km/h 5.6 km/h 68 % 0 mm
23:15 0.6 °C -4.9 °C 1025.3 hPa ENE 2.6 km/h 6.4 km/h 67 % 0 mm
23:20 0.7 °C -4.7 °C 1025.6 hPa ENE 2.7 km/h 5.6 km/h 67 % 0 mm
23:25 0.8 °C -4.6 °C 1025.6 hPa ENE 2.7 km/h 5.6 km/h 67 % 0 mm
23:30 0.9 °C -4.7 °C 1025.6 hPa Calm   1.9 km/h 66 % 0 mm
23:39 1 °C -4.7 °C 1025.6 hPa Calm     66 % 0 mm
23:44 1.1 °C -4.6 °C 1025.6 hPa Calm     66 % 0 mm
23:49 1 °C -4.7 °C 1025.3 hPa Calm     66 % 0 mm
23:52 1 °C -4.7 °C 1025.3 hPa East 0.5 km/h 3.7 km/h 66 % 0 mm
23:56 1 °C -4.4 °C 1024.9 hPa ESE 1.3 km/h 3.7 km/h 67 % 0 mm
Crab Meadow Weather
Compliments of Weather Underground - 3.5 mb

Script developed by  Jim McMurry - jmcmurry@mwt.net Adapted for the template by  Wim van der Kuil - Leuven-Template.eu

Recycling: To produce each week's Sunday newspapers, 500,000 trees must be cut down.